Location: Newark
(33.6333°S, 78.8500°W)
Time: 03:06:56
(UTC+00:00)

Tiros 1 despin weight - Pass Details

Date: 20 September 2019
Orbit: 593 x 643 km, 48.2° (Epoch: 20 October)

Event Time Altitude Azimuth Distance (km) Brightness Sun altitude
Rises 13:28:24 0° 250° (WSW) 2,961 ? 27.8°
Reaches altitude 10° 13:31:33 10° 272° (W) 2,044 ? 28.4°
Maximum altitude 13:34:23 16° 309° (NW) 1,678 ? 28.9°
Drops below altitude 10° 13:37:12 10° 346° (NNW) 2,026 ? 29.4°
Sets 13:40:19 0° 8° (N) 2,921 ? 30.0°
